South Hill, VA

8:22 AM EST on December 08, 2019 (GMT -0500)
Mecklenburg-Brunswick Regional

Weather History for KAVC - October, 2019

Change the Weather History Date:

Wednesday, October 23, 2019

  Actual Average (WUND) Record (WUND)
Temperature  
Mean Temperature 54 °F -  
Max Temperature 66 °F - - (-1)
Min Temperature 41 °F - - (-1)
Degree Days  
Heating Degree Days 11    
Growing Degree Days 4 (Base 50)    
Moisture  
Dew Point 43 °F    
Average Humidity 69    
Maximum Humidity 94    
Minimum Humidity 29    
Precipitation  
Precipitation 0.00 in - - ()
Sea Level Pressure  
Sea Level Pressure 30.14 in    
Wind  
Wind Speed 1 mph (WNW)    
Max Wind Speed 8 mph    
Max Gust Speed -    
Visibility 10 miles    
Events      
Averages and records for this station are not official NWS values.
T = Trace of Precipitation, MM = Missing Value Source: NWS Daily Summary

Daily Weather History Graph

Daily Weather History Graph

Search for Another Location

Airport or City:

Astronomy

Oct. 23, 2019 Rise Set
Actual Time 7:26 AM EDT 6:25 PM EDT
Civil Twilight 7:00 AM EDT 6:52 PM EDT
Nautical Twilight 6:30 AM EDT 7:22 PM EDT
Astronomical Twilight 6:00 AM EDT 7:52 PM EDT
Moon 1:54 AM EDT (10/23) 4:04 PM EDT (10/23)
Length of Visible Light 11h 51m
Length of Day
10h 58m
Waning Crescent, 27% of the Moon is Illuminated
Oct 23
Waning Crescent
Oct 27
New
Nov 4
First Quarter
Nov 12
Full
Nov 19
Last Quarter

Hourly Weather History & Observations

Time (EDT) Temp. Dew Point Humidity Pressure Visibility Wind Dir Wind Speed Gust Speed Precip Events Conditions
12:15 AM 54.5 °F 52.7 °F 94% 29.95 in 10.0 mi Calm Calm - N/A   Mostly Cloudy
1:15 AM 52.3 °F 50.4 °F 93% 29.95 in 10.0 mi Calm Calm - N/A   Mostly Cloudy
1:35 AM 53.1 °F 51.1 °F 93% 29.96 in 10.0 mi Calm Calm - N/A   Mostly Cloudy
1:55 AM 52.2 °F 50.2 °F 93% 29.96 in 10.0 mi Calm Calm - N/A   Clear
2:15 AM 51.4 °F 49.5 °F 93% 29.97 in 10.0 mi Calm Calm - N/A   Scattered Clouds
2:35 AM 51.6 °F 49.6 °F 93% 29.98 in 10.0 mi Calm Calm - N/A   Clear
2:55 AM 49.8 °F 48.0 °F 94% 29.98 in 10.0 mi Calm Calm - N/A   Scattered Clouds
3:15 AM 51.4 °F 49.5 °F 93% 29.99 in 10.0 mi Calm Calm - N/A   Clear
3:35 AM 52.7 °F 50.7 °F 93% 30.00 in 10.0 mi Calm Calm - N/A   Clear
3:55 AM 52.7 °F 50.9 °F 94% 29.99 in 10.0 mi Calm Calm - N/A   Clear
4:15 AM 49.6 °F 47.8 °F 94% 30.00 in 10.0 mi Calm Calm - N/A   Clear
4:35 AM 52.9 °F 50.9 °F 93% 30.01 in 10.0 mi WNW 3.5 mph - N/A   Clear
4:55 AM 52.7 °F 50.5 °F 92% 30.03 in 10.0 mi NW 3.5 mph - N/A   Clear
5:15 AM 51.8 °F 49.8 °F 93% 30.03 in 10.0 mi NW 3.5 mph - N/A   Clear
5:35 AM 51.3 °F 49.1 °F 92% 30.04 in 10.0 mi Calm Calm - N/A   Clear
5:55 AM 50.9 °F 48.2 °F 90% 30.05 in 10.0 mi NW 3.5 mph - N/A   Clear
6:15 AM 50.5 °F 47.5 °F 89% 30.06 in 10.0 mi NW 3.5 mph - N/A   Clear
6:35 AM 50.2 °F 46.9 °F 89% 30.08 in 10.0 mi NW 3.5 mph - N/A   Clear
6:55 AM 50.0 °F 46.6 °F 88% 30.09 in 10.0 mi Calm Calm - N/A   Clear
7:15 AM 49.5 °F 46.0 °F 88% 30.09 in 10.0 mi Calm Calm - N/A   Clear
7:35 AM 48.7 °F 45.7 °F 89% 30.10 in 10.0 mi Calm Calm - N/A   Clear
7:55 AM 48.6 °F 45.5 °F 89% 30.11 in 10.0 mi Calm Calm - N/A   Clear
8:15 AM 50.2 °F 46.0 °F 86% 30.12 in 10.0 mi Calm Calm - N/A   Clear
8:35 AM 52.5 °F 46.4 °F 80% 30.14 in 10.0 mi WNW 3.5 mph - N/A   Clear
8:55 AM 53.8 °F 46.8 °F 77% 30.15 in 10.0 mi NW 3.5 mph - N/A   Clear
9:35 AM 57.2 °F 45.7 °F 65% 30.16 in 10.0 mi Calm Calm - N/A   Clear
9:55 AM 59.0 °F 45.9 °F 62% 30.16 in 10.0 mi WNW 3.5 mph - N/A   Clear
10:15 AM 60.1 °F 44.2 °F 56% 30.16 in 10.0 mi NNW 3.5 mph - N/A   Clear
10:35 AM 61.2 °F 41.9 °F 49% 30.16 in 10.0 mi NW 3.5 mph - N/A   Clear
10:55 AM 61.9 °F 41.5 °F 47% 30.17 in 10.0 mi West 6.9 mph - N/A   Clear
11:15 AM 62.8 °F 38.8 °F 41% 30.17 in 10.0 mi NW 5.8 mph - N/A   Clear
11:35 AM 63.5 °F 37.8 °F 39% 30.17 in 10.0 mi WNW 8.1 mph - N/A   Clear
11:55 AM 64.0 °F 38.3 °F 39% 30.17 in 10.0 mi NW 5.8 mph - N/A   Clear
12:15 PM 64.4 °F 38.1 °F 38% 30.17 in 10.0 mi WNW 3.5 mph - N/A   Clear
12:35 PM 64.4 °F 38.1 °F 38% 30.18 in 10.0 mi NW 3.5 mph - N/A   Clear
12:55 PM 64.4 °F 36.7 °F 36% 30.17 in 10.0 mi Calm Calm - N/A   Clear
1:15 PM 64.9 °F 36.5 °F 35% 30.17 in 10.0 mi WNW 6.9 mph - N/A   Clear
1:35 PM 65.7 °F 36.7 °F 34% 30.16 in 10.0 mi NW 5.8 mph - N/A   Clear
1:55 PM 65.3 °F 36.0 °F 34% 30.15 in 10.0 mi West 6.9 mph - N/A   Clear
2:15 PM 65.5 °F 36.5 °F 34% 30.15 in 10.0 mi Calm Calm - N/A   Clear
2:35 PM 65.8 °F 37.2 °F 35% 30.16 in 10.0 mi West 6.9 mph - N/A   Clear
2:55 PM 66.4 °F 36.3 °F 33% 30.16 in 10.0 mi WNW 4.6 mph - N/A   Clear
3:15 PM 66.0 °F 33.6 °F 30% 30.16 in 10.0 mi NNW 3.5 mph - N/A   Clear
3:35 PM 66.7 °F 33.8 °F 29% 30.16 in 10.0 mi West 5.8 mph - N/A   Clear
3:55 PM 66.7 °F 33.8 °F 29% 30.17 in 10.0 mi NW 3.5 mph - N/A   Clear
4:15 PM 66.0 °F 33.6 °F 30% 30.17 in 10.0 mi Calm Calm - N/A   Clear
4:35 PM 66.2 °F 36.3 °F 33% 30.18 in 10.0 mi West 4.6 mph - N/A   Clear
4:55 PM 65.5 °F 36.0 °F 34% 30.19 in 10.0 mi NW 3.5 mph - N/A   Clear
5:15 PM 65.1 °F 34.9 °F 33% 30.19 in 10.0 mi WNW 4.6 mph - N/A   Clear
5:35 PM 64.0 °F 35.4 °F 35% 30.20 in 10.0 mi Calm Calm - N/A   Clear
5:55 PM 63.3 °F 37.8 °F 39% 30.20 in 10.0 mi Calm Calm - N/A   Clear
6:15 PM 59.5 °F 44.4 °F 57% 30.21 in 10.0 mi Calm Calm - N/A   Clear
6:35 PM 55.2 °F 45.0 °F 68% 30.22 in 10.0 mi Calm Calm - N/A   Clear
6:55 PM 52.2 °F 46.8 °F 82% 30.22 in 10.0 mi Calm Calm - N/A   Clear
7:15 PM 50.4 °F 47.3 °F 89% 30.24 in 10.0 mi Calm Calm - N/A   Clear
7:35 PM 49.6 °F 46.8 °F 90% 30.25 in 10.0 mi Calm Calm - N/A   Clear
7:55 PM 49.6 °F 47.5 °F 92% 30.26 in 10.0 mi Calm Calm - N/A   Clear
8:15 PM 47.3 °F 45.3 °F 93% 30.26 in 10.0 mi Calm Calm - N/A   Clear
8:35 PM 47.5 °F 45.7 °F 93% 30.27 in 10.0 mi Calm Calm - N/A   Clear
8:55 PM 46.6 °F 44.6 °F 93% 30.26 in 10.0 mi Calm Calm - N/A   Clear
9:15 PM 45.1 °F 43.3 °F 93% 30.27 in 10.0 mi Calm Calm - N/A   Clear
9:35 PM 45.5 °F 43.5 °F 93% 30.27 in 10.0 mi Calm Calm - N/A   Clear
11:15 PM 42.8 °F 41.0 °F 93% 30.30 in 10.0 mi Calm Calm - N/A   Clear
11:35 PM 43.0 °F 41.2 °F 93% 30.30 in 10.0 mi Calm Calm - N/A   Clear
11:55 PM 41.7 °F 39.9 °F 93% 30.30 in 10.0 mi Calm Calm - N/A   Clear